Volver al catálogo

STARLINK-34794

ActivoComunicacionesSSO
NORAD 65070·PAYLOAD·🇺🇸 United States

Lanzado Jul 31, 2025 desde Vandenberg Space Force Base

Loading…

Próximos Pases (próximas 24 horas)

TLE

ActualizadoSource: CelesTrak SupGP

Época: Sep 15, 2026, 03:26 UTC

1 65070C 25165Q   26258.14354167 -.00112200  00000+0 -34784-2 0  2584
2 65070  97.2841 329.4267 0002095  78.5692 282.8875 15.33535866    13

Sigue STARLINK-34794 en tiempo real con AllMySat

Download on the App Store